STARLINK-2367, 47907

Orbit data source: Space-Track

STARLINK-2367, 47907 is a payload satellite owned by SpaceX/Seattle (US) in LEO that was launched on Sun, 14 Mar 2021 UTC via an FALCON 9 launch vehicle from the Air Force Eastern Test Range (AFETR). Payload-class satellites include a variety of spacecraft equipped with specific instruments for various scientific and technological missions. These include communications satellites like Starlink; space stations such as the ISS; scientific satellites like the Hubble; Earth observation satellites from companies like Planet Labs, Umbra, and HawkEye 360; GPS; miniature CubeSats for education and research; and military/defense satellites.

Loading next visibility...
Identifier
47907, 2021-021AZ
Orbit
LEO
Country
Flag of USUS
Related business
Manufacturer
SpaceX/Seattle
Mission
Operational Commercial Communications
Bus & Motor
STARLINK, Unknown motor
Mass
260 kg wet, ~248 kg dry
Launch date (UTC)
2021-03-14 (5 years ago)
Launch vehicle
FALCON 9
Launch site
Air Force Eastern Test Range (AFETR)
Object type
Payload
Rocket body
Debris
Shape & HBR
Box + 1 Pan, 10.1 m
Radar Cross Section
13.562 m², Large (>1 m²)

Expand to show TLE details & history
Last TLE update: 2 days ago

TLE from 2 days ago
0 STARLINK-2367
1 47907U 21021AZ  26171.38280927  .00002620  00000-0  96102-4 0  9991
2 47907  53.1605 163.3683 0001164  78.4873 281.6259 15.31718005291756
Epoch: 2026-06-20T09:11Z
TLE epoch observation values (Epoch: 2026-06-20T09:11:14.720Z)
Latitude
-0.00005°
Longitude
116.9587°
Altitude
471.426 km
Speed
7.632 km/s
True Right ascension
10h 53m 28s
True Declination
0° 00' 00"
Sunlit
Object was in daylight at epoch
Visualization orbit readout
Latitude
Unknown
Longitude
Unknown
Altitude
Unknown
Speed
Unknown
Apparent Right ascension
Unknown
Apparent Declination
Unknown
Sunlit
N/A
Visualization observer readout
Local Sidereal Time
21:28:24
Azimuth
Unknown
Elevation
Unknown
Doppler factor
Unknown
Orbital elements
Apogee altitude
471.74 km
Perigee altitude
470.146 km
Semi-major axis
6,849.08 km
Eccentricity
0.00012
Inclination
53.1605°
RAAN
163.3683°
Arg. of periapsis
78.4873°
True anomaly
281.61283°
Mean anomaly
281.6259°
Eccentric anomaly
281.61937°
Mean motion
3.82908 °/min
Orbital period
94.02 mins
BSTAR
0.000096102
Loading maneuver chart data...
Computing Atmospheric mass density...

Documentation

Showing up to 5 results
|